H1 CPF 2 NER 2023 12 7 9 341 01 glonass140 H2 1903001 9140 44299 2023 12 7 0 0 0 2023 12 10 23 45 0 900 1 1 0 0 0 1 H9 10 0 60285 0.00000 0 -22361759.558 9365097.597 7923864.075 10 0 60285 900.00000 0 -21331854.201 8826553.177 10850191.003 10 0 60285 1800.00000 0 -20068299.694 8003570.928 13565756.471 10 0 60285 2700.00000 0 -18628717.092 6881749.761 16017909.463 10 0 60285 3600.00000 0 -17074454.496 5459017.627 18159150.367 10 0 60285 4500.00000 0 -15468009.015 3745976.036 19948042.973 10 0 60285 5400.00000 0 -13870424.073 1765713.884 21350006.345 10 0 60285 6300.00000 0 -12338770.697 -446901.835 22337972.435 10 0 60285 7200.00000 0 -10923817.342 -2846429.109 22892897.960 10 0 60285 8100.00000 0 -9667984.433 -5378498.248 23004121.945 10 0 60285 9000.00000 0 -8603667.610 -7981835.867 22669563.109 10 0 60285 9900.00000 0 -7751998.178 -10590582.463 21895754.124 10 0 60285 10800.00000 0 -7122091.005 -13136808.765 20697712.576 10 0 60285 11700.00000 0 -6710810.025 -15553127.868 19098651.172 10 0 60285 12600.00000 0 -6503060.112 -17775296.211 17129532.552 10 0 60285 13500.00000 0 -6472592.459 -19744696.791 14828476.644 10 0 60285 14400.00000 0 -6583289.347 -21410602.657 12240031.165 10 0 60285 15300.00000 0 -6790874.371 -22732127.376 9414318.382 10 0 60285 16200.00000 0 -7044976.369 -23679781.913 6406073.605 10 0 60285 17100.00000 0 -7291460.458 -24236573.217 3273593.106 10 0 60285 18000.00000 0 -7474928.147 -24398598.643 77611.060 10 0 60285 18900.00000 0 -7541281.090 -24175111.093 -3119873.224 10 0 60285 19800.00000 0 -7440240.096 -23588051.723 -6256795.361 10 0 60285 20700.00000 0 -7127712.425 -22671069.320 -9272229.966 10 0 60285 21600.00000 0 -6567906.563 -21468066.970 -12107575.206 10 0 60285 22500.00000 0 -5735103.906 -20031336.580 -14707694.567 10 0 60285 23400.00000 0 -4615011.072 -18419359.185 -17021993.189 10 0 60285 24300.00000 0 -3205634.016 -16694363.210 -19005407.448 10 0 60285 25200.00000 0 -1517635.148 -14919743.008 -20619288.132 10 0 60285 26100.00000 0 425843.624 -13157446.061 -21832159.573 10 0 60285 27000.00000 0 2589886.520 -11465438.497 -22620339.608 10 0 60285 27900.00000 0 4929010.573 -9895355.359 -22968407.927 10 0 60285 28800.00000 0 7388824.480 -8490434.249 -22869513.270 10 0 60285 29700.00000 0 9908071.692 -7283819.119 -22325513.120 10 0 60285 30600.00000 0 12420973.420 -6297305.248 -21346942.718 10 0 60285 31500.00000 0 14859774.338 -5540577.969 -19952813.584 10 0 60285 32400.00000 0 17157385.043 -5010976.728 -18170245.062 10 0 60285 33300.00000 0 19250010.927 -4693793.797 -16033935.784 10 0 60285 34200.00000 0 21079657.413 -4563094.298 -13585485.178 10 0 60285 35100.00000 0 22596406.513 -4583021.921 -10872578.316 10 0 60285 36000.00000 0 23760369.197 -4709533.991 -7948050.262 10 0 60285 36900.00000 0 24543231.645 -4892491.197 -4868848.728 10 0 60285 37800.00000 0 24929330.730 -5078012.126 -1694916.047 10 0 60285 38700.00000 0 24916214.042 -5210991.461 1511986.856 10 0 60285 39600.00000 0 24514661.766 -5237673.842 4689490.478 10 0 60285 40500.00000 0 23748170.589 -5108173.163 7775836.227 10 0 60285 41400.00000 0 22651922.664 -4778829.722 10711080.809 10 0 60285 42300.00000 0 21271284.338 -4214304.781 13438261.475 10 0 60285 43200.00000 0 19659899.064 -3389323.646 15904499.282 10 0 60285 44100.00000 0 17877455.581 -2289993.486 18062019.121 10 0 60285 45000.00000 0 15987225.735 -914640.372 19869067.251 10 0 60285 45900.00000 0 14053475.305 725869.679 21290709.465 10 0 60285 46800.00000 0 12138855.912 2608339.195 22299495.637 10 0 60285 47700.00000 0 10301886.297 4697968.773 22875978.992 10 0 60285 48600.00000 0 8594626.909 6949577.639 23009081.397 10 0 60285 49500.00000 0 7060643.364 9309265.120 22696298.697 10 0 60285 50400.00000 0 5733341.988 11716444.826 21943743.002 10 0 60285 51300.00000 0 4634745.174 14106168.196 20766021.595 10 0 60285 52200.00000 0 3774755.997 16411642.221 19185954.916 10 0 60285 53100.00000 0 3150941.429 18566838.107 17234138.799 10 0 60285 54000.00000 0 2748842.124 20509083.801 14948358.800 10 0 60285 54900.00000 0 2542795.046 22181533.746 12372867.084 10 0 60285 55800.00000 0 2497234.061 23535413.904 9557534.860 10 0 60285 56700.00000 0 2568413.702 24531949.114 6556895.739 10 0 60285 57600.00000 0 2706483.648 25143892.550 3429097.579 10 0 60285 58500.00000 0 2857826.628 25356593.315 234782.394 10 0 60285 59400.00000 0 2967561.184 25168557.114 -2964084.523 10 0 60285 60300.00000 0 2982103.527 24591475.964 -6105413.877 10 0 60285 61200.00000 0 2851679.918 23649724.945 -9128196.770 10 0 60285 62100.00000 0 2532682.750 22379346.365 -11973690.748 10 0 60285 63000.00000 0 1989769.803 20826563.167 -14586564.148 10 0 60285 63900.00000 0 1197616.749 19045883.317 -16915976.113 10 0 60285 64800.00000 0 142247.322 17097874.126 -18916570.859 10 0 60285 65700.00000 0 -1178116.662 15046699.425 -20549366.446 10 0 60285 66600.00000 0 -2752723.220 12957522.572 -21782520.321 10 0 60285 67500.00000 0 -4558491.949 10893883.931 -22591956.380 10 0 60285 68400.00000 0 -6560743.125 8915162.551 -22961840.939 10 0 60285 69300.00000 0 -8714425.301 7074228.302 -22884897.983 10 0 60285 70200.00000 0 -10965791.525 5415382.705 -22362557.143 10 0 60285 71100.00000 0 -13254455.248 3972674.486 -21404931.095 10 0 60285 72000.00000 0 -15515740.731 2768660.226 -20030622.404 10 0 60285 72900.00000 0 -17683230.122 1813661.601 -18266363.174 10 0 60285 73800.00000 0 -19691400.808 1105549.727 -16146494.206 10 0 60285 74700.00000 0 -21478242.474 630064.815 -13712293.656 10 0 60285 75600.00000 0 -22987743.956 361656.547 -11011168.317 10 0 60285 76500.00000 0 -24172145.255 264808.408 -8095723.517 10 0 60285 77400.00000 0 -24993859.862 295788.576 -5022730.351 10 0 60285 78300.00000 0 -25426986.544 404751.728 -1852011.098 10 0 60285 79200.00000 0 -25458347.137 538101.228 1354734.493 10 0 60285 80100.00000 0 -25088007.127 641010.090 4535138.156 10 0 60285 81000.00000 0 -24329257.841 659992.590 7627382.725 10 0 60285 81900.00000 0 -23208061.974 545416.449 10571407.872 10 0 60285 82800.00000 0 -21761986.865 253848.436 13310077.850 10 0 60285 83700.00000 0 -20038671.478 -249866.362 15790288.327 10 0 60285 84600.00000 0 -18093892.405 -990879.641 17963990.982 10 0 60285 85500.00000 0 -15989310.694 -1983042.148 19789116.500 10 0 60286 0.00000 0 -13789994.340 -3228087.529 21230378.859 10 0 60286 900.00000 0 -11561818.661 -4715332.683 22259947.208 10 0 60286 1800.00000 0 -9368855.420 -6421905.517 22857971.757 10 0 60286 2700.00000 0 -7270854.584 -8313493.018 23012957.353 10 0 60286 3600.00000 0 -5320925.077 -10345577.324 22721976.654 10 0 60286 4500.00000 0 -3563508.257 -12465109.628 21990720.466 10 0 60286 5400.00000 0 -2032726.857 -14612553.127 20833384.661 10 0 60286 6300.00000 0 -751176.368 -16724211.201 19272395.959 10 0 60286 7200.00000 0 270792.411 -18734745.201 17337981.636 10 0 60286 8100.00000 0 1035271.085 -20579778.349 15067590.864 10 0 60286 9000.00000 0 1556464.484 -22198478.455 12505178.022 10 0 60286 9900.00000 0 1859849.088 -23536012.705 9700360.839 10 0 60286 10800.00000 0 1980854.809 -24545772.685 6707468.673 10 0 60286 11700.00000 0 1963125.723 -25191277.006 3584498.348 10 0 60286 12600.00000 0 1856432.986 -25447671.769 391997.064 10 0 60286 13500.00000 0 1714327.924 -25302765.674 -2808106.559 10 0 60286 14400.00000 0 1591634.393 -24757555.658 -5953700.926 10 0 60286 15300.00000 0 1541886.560 -23826220.107 -8983696.213 10 0 60286 16200.00000 0 1614820.826 -22535578.917 -11839211.852 10 0 60286 17100.00000 0 1854028.613 -20924042.011 -14464723.457 10 0 60286 18000.00000 0 2294870.214 -19040089.435 -16809146.461 10 0 60286 18900.00000 0 2962739.084 -16940345.889 -18826835.003 10 0 60286 19800.00000 0 3871751.337 -14687329.646 -20478476.235 10 0 60286 20700.00000 0 5023917.391 -12346969.564 -21731862.211 10 0 60286 21600.00000 0 6408832.434 -9985993.690 -22562523.978 10 0 60286 22500.00000 0 8003900.552 -7669298.363 -22954215.174 10 0 60286 23400.00000 0 9775084.825 -5457407.611 -22899235.299 10 0 60286 24300.00000 0 11678153.444 -3404128.861 -22398586.005 10 0 60286 25200.00000 0 13660370.929 -1554502.727 -21461956.904 10 0 60286 26100.00000 0 15662564.470 56867.624 -20107540.752 10 0 60286 27000.00000 0 17621479.409 1407038.077 -18361681.207 10 0 60286 27900.00000 0 19472325.403 2485445.570 -16258359.686 10 0 60286 28800.00000 0 21151406.358 3294101.072 -13838531.158 10 0 60286 29700.00000 0 22598723.516 3847246.528 -11149321.835 10 0 60286 30600.00000 0 23760441.892 4170491.600 -8243104.652 10 0 60286 31500.00000 0 24591115.900 4299468.124 -5176471.087 10 0 60286 32400.00000 0 25055580.193 4278060.833 -2009120.128 10 0 60286 33300.00000 0 25130425.917 4156290.893 1197313.056 10 0 60286 34200.00000 0 24805000.294 3987943.519 4380464.864 10 0 60286 35100.00000 0 24081887.797 3828041.694 7478462.908 10 0 60286 36000.00000 0 22976853.248 3730274.282 10431132.975 10 0 60286 36900.00000 0 21518250.062 3744488.413 13181169.178 10 0 60286 37800.00000 0 19745919.352 3914352.899 15675244.321 10 0 60286 38700.00000 0 17709626.948 4275291.714 17865039.024 10 0 60286 39600.00000 0 15467104.476 4852774.812 19708170.158 10 0 60286 40500.00000 0 13081776.801 5661038.107 21169001.468 10 0 60286 41400.00000 0 10620270.698 6702286.221 22219321.841 10 0 60286 42300.00000 0 8149808.171 7966411.254 22838879.329 10 0 60286 43200.00000 0 5735592.036 9431239.321 23015761.914 10 0 60286 44100.00000 0 3438291.207 11063294.734 22746618.784 10 0 60286 45000.00000 0 1311728.616 12819050.370 22036718.715 10 0 60286 45900.00000 0 -599133.920 14646612.794 20899844.990 10 0 60286 46800.00000 0 -2259831.992 16487772.870 19358029.015 10 0 60286 47700.00000 0 -3647589.709 18280337.496 17441127.534 10 0 60286 48600.00000 0 -4752017.586 19960646.410 15186251.041 10 0 60286 49500.00000 0 -5575289.440 21466170.253 12637053.582 10 0 60286 50400.00000 0 -6131791.838 22738082.294 9842896.692 10 0 60286 51300.00000 0 -6447261.501 23723697.053 6857902.637 10 0 60286 52200.00000 0 -6557447.237 24378674.115 3739914.312 10 0 60286 53100.00000 0 -6506352.843 24668894.764 549381.190 10 0 60286 54000.00000 0 -6344135.057 24571932.367 -2651807.647 10 0 60286 54900.00000 0 -6124745.239 24078054.052 -5801521.096 10 0 60286 55800.00000 0 -5903414.490 23190710.623 -8838591.035 10 0 60286 56700.00000 0 -5734088.706 21926492.935 -11704001.222 10 0 60286 57600.00000 0 -5666922.468 20314555.289 -14342036.748 10 0 60286 58500.00000 0 -5745938.403 18395528.712 -16701371.270 10 0 60286 59400.00000 0 -6006951.856 16219968.529 -18736070.518 10 0 60286 60300.00000 0 -6475849.709 13846400.123 -20406492.139 10 0 60286 61200.00000 0 -7167297.337 11339043.831 -21680063.936 10 0 60286 62100.00000 0 -8083929.721 8765313.386 -22531925.010 10 0 60286 63000.00000 0 -9216062.341 6193191.872 -22945416.942 10 0 60286 63900.00000 0 -10541935.580 3688594.404 -22912415.077 10 0 60286 64800.00000 0 -12028483.763 1312827.322 -22433493.069 10 0 60286 65700.00000 0 -13632597.810 -879750.307 -21517917.055 10 0 60286 66600.00000 0 -15302829.412 -2843765.510 -20183469.145 10 0 60286 67500.00000 0 -16981465.836 -4544485.721 -18456103.282 10 0 60286 68400.00000 0 -18606888.546 -5959019.973 -16369439.811 10 0 60286 69300.00000 0 -20116116.511 -7077017.364 -13964108.454 10 0 60286 70200.00000 0 -21447426.978 -7900834.541 -11286952.483 10 0 60286 71100.00000 0 -22542942.986 -8445166.419 -8390109.832 10 0 60286 72000.00000 0 -23351078.057 -8736157.211 -5329989.594 10 0 60286 72900.00000 0 -23828734.508 -8810030.935 -2166164.571 10 0 60286 73800.00000 0 -23943162.288 -8711301.082 1039797.632 10 0 60286 74700.00000 0 -23673399.684 -8490636.912 4225541.109 10 0 60286 75600.00000 0 -23011235.219 -8202478.409 7329141.289 10 0 60286 76500.00000 0 -21961650.429 -7902502.304 10290313.085 10 0 60286 77400.00000 0 -20542725.380 -7645047.602 13051583.391 10 0 60286 78300.00000 0 -18785011.518 -7480610.343 15559404.878 10 0 60286 79200.00000 0 -16730398.775 -7453513.859 17765189.575 10 0 60286 80100.00000 0 -14430524.992 -7599852.977 19626242.653 10 0 60286 81000.00000 0 -11944794.467 -7945798.557 21106579.202 10 0 60286 81900.00000 0 -9338088.347 -8506333.352 22177609.302 10 0 60286 82800.00000 0 -6678261.897 -9284471.819 22818679.402 10 0 60286 83700.00000 0 -4033531.960 -10270996.230 23017460.818 10 0 60286 84600.00000 0 -1469862.005 -11444719.986 22770178.986 10 0 60286 85500.00000 0 951548.181 -12773267.154 22081679.953 10 0 60287 0.00000 0 3176565.457 -14214335.911 20965333.450 10 0 60287 900.00000 0 5160126.354 -15717394.578 19442773.943 10 0 60287 1800.00000 0 6867855.791 -17225738.323 17543485.999 10 0 60287 2700.00000 0 8277239.781 -18678824.239 15304239.425 10 0 60287 3600.00000 0 9378301.695 -20014786.341 12768385.662 10 0 60287 4500.00000 0 10173756.229 -21173026.970 9985027.538 10 0 60287 5400.00000 0 10678635.262 -22096776.738 7008077.523 10 0 60287 6300.00000 0 10919401.836 -22735516.167 3895221.721 10 0 60287 7200.00000 0 10932589.750 -23047157.478 706808.944 10 0 60287 8100.00000 0 10763026.126 -22999894.613 -2495314.219 10 0 60287 9000.00000 0 10461711.868 -22573643.057 -5649000.054 10 0 60287 9900.00000 0 10083449.476 -21761007.894 -8693004.938 10 0 60287 10800.00000 0 9684318.499 -20567738.125 -11568179.611 10 0 60287 11700.00000 0 9319105.538 -19012646.675 -14218621.110 10 0 60287 12600.00000 0 9038797.866 -17126997.916 -16592763.579 10 0 60287 13500.00000 0 8888247.187 -14953386.875 -18644386.342 10 0 60287 14400.00000 0 8904103.077 -12544155.688 -20333519.236 10 0 60287 15300.00000 0 9113104.339 -9959412.330 -21627227.160 10 0 60287 16200.00000 0 9530801.527 -7264733.420 -22500258.215 10 0 60287 17100.00000 0 10160765.709 -4528646.203 -22935542.471 10 0 60287 18000.00000 0 10994318.051 -1819994.173 -22924531.241 10 0 60287 18900.00000 0 12010792.832 794704.244 -22467369.914 10 0 60287 19800.00000 0 13178323.868 3253794.161 -21572900.509 10 0 60287 20700.00000 0 14455122.159 5502814.237 -20258493.518 10 0 60287 21600.00000 0 15791191.593 7496521.309 -18549711.859 10 0 60287 22500.00000 0 17130410.860 9200525.489 -16479813.193 10 0 60287 23400.00000 0 18412893.899 10592467.902 -14089100.057 10 0 60287 24300.00000 0 19577529.199 11662692.553 -11424130.533 10 0 60287 25200.00000 0 20564590.409 12414385.227 -8536805.000 10 0 60287 26100.00000 0 21318307.488 12863174.930 -5483347.331 10 0 60287 27000.00000 0 21789289.193 13036216.262 -2323201.089 10 0 60287 27900.00000 0 21936694.020 12970793.211 882136.853 10 0 60287 28800.00000 0 21730057.420 12712505.159 4070321.496 10 0 60287 29700.00000 0 21150697.909 12313113.588 7179379.218 10 0 60287 30600.00000 0 20192642.700 11828142.181 10148917.022 10 0 60287 31500.00000 0 18863034.013 11314333.156 12921297.302 10 0 60287 32400.00000 0 17181999.322 10827068.376 15442755.033 10 0 60287 33300.00000 0 15181991.369 10417864.724 17664435.772 10 0 60287 34200.00000 0 12906626.008 10132049.606 19543334.788 10 0 60287 35100.00000 0 10409066.717 10006714.331 21043119.976 10 0 60287 36000.00000 0 7750023.207 10069030.978 22134823.733 10 0 60287 36900.00000 0 4995447.170 10335002.845 22797391.668 10 0 60287 37800.00000 0 2214020.329 10808700.185 23018078.799 10 0 60287 38700.00000 0 -525462.015 11482012.717 22792686.779 10 0 60287 39600.00000 0 -3156704.661 12334928.887 22125638.430 10 0 60287 40500.00000 0 -5618416.700 13336330.102 21029888.749 10 0 60287 41400.00000 0 -7856604.100 14445266.995 19526674.261 10 0 60287 42300.00000 0 -9826557.280 15612664.825 17645105.363 10 0 60287 43200.00000 0 -11494452.790 16783387.456 15421608.986 10 0 60287 44100.00000 0 -12838503.952 17898574.380 12899231.488 10 0 60287 45000.00000 0 -13849613.683 18898153.743 10126814.318 10 0 60287 45900.00000 0 -14531503.162 19723426.755 7158057.357 10 0 60287 46800.00000 0 -14900311.592 20319615.517 4050487.091 10 0 60287 47700.00000 0 -14983684.159 20638267.383 864348.836 10 0 60287 48600.00000 0 -14819386.671 20639414.573 -2338556.099 10 0 60287 49500.00000 0 -14453505.195 20293397.573 -5496066.102 10 0 60287 50400.00000 0 -13938306.535 19582274.603 -8546864.667 10 0 60287 51300.00000 0 -13329849.803 18500756.558 -11431671.983 10 0 60287 52200.00000 0 -12685449.997 17056626.523 -14094399.322 10 0 60287 53100.00000 0 -12061100.926 15270624.572 -16483243.379 10 0 60287 54000.00000 0 -11508966.668 13175800.900 -18551698.890 10 0 60287 54900.00000 0 -11075048.029 10816362.730 -20259469.438 10 0 60287 55800.00000 0 -10797123.151 8246061.697 -21573258.300 10 0 60287 56700.00000 0 -10703049.970 5526187.795 -22467423.594 10 0 60287 57600.00000 0 -10809502.934 2723252.474 -22924484.597 10 0 60287 58500.00000 0 -11121198.188 -93543.262 -22935469.020 10 0 60287 59400.00000 0 -11630640.697 -2854950.897 -22500094.072 10 0 60287 60300.00000 0 -12318404.811 -5494316.936 -21626777.379 10 0 60287 61200.00000 0 -13153937.071 -7950116.068 -20332477.138 10 0 60287 62100.00000 0 -14096847.922 -10168269.618 -18642364.179 10 0 60287 63000.00000 0 -15098638.108 -12104152.823 -16589332.003 10 0 60287 63900.00000 0 -16104786.891 -13724207.416 -14213354.153 10 0 60287 64800.00000 0 -17057113.698 -15007092.635 -11560701.392 10 0 60287 65700.00000 0 -17896312.934 -15944327.254 -8683034.179 10 0 60287 66600.00000 0 -18564554.172 -16540396.755 -5636388.615 10 0 60287 67500.00000 0 -19008037.024 -16812322.551 -2480076.330 10 0 60287 68400.00000 0 -19179391.875 -16788713.000 724479.341 10 0 60287 69300.00000 0 -19039824.303 -16508338.030 3914947.187 10 0 60287 70200.00000 0 -18560912.021 -16018289.337 7029307.478 10 0 60287 71100.00000 0 -17725978.132 -15371805.610 10007062.264 10 0 60287 72000.00000 0 -16530982.685 -14625856.162 12790412.361 10 0 60287 72900.00000 0 -14984895.051 -13838586.173 15325377.860 10 0 60287 73800.00000 0 -13109531.655 -13066732.141 17562840.457 10 0 60287 74700.00000 0 -10938866.092 -12363116.812 19459487.853 10 0 60287 75600.00000 0 -8517840.627 -11774328.958 20978642.722 10 0 60287 76500.00000 0 -5900728.648 -11338685.048 22090961.339 10 0 60287 77400.00000 0 -3149116.009 -11084557.663 22774989.580 10 0 60287 78300.00000 0 -329584.587 -11029139.825 23017566.826 10 0 60287 79200.00000 0 2488806.740 -11177696.086 22814071.150 10 0 60287 80100.00000 0 5237140.419 -11523330.943 22168501.940 10 0 60287 81000.00000 0 7849250.838 -12047283.691 21093398.974 10 0 60287 81900.00000 0 10264220.670 -12719737.140 19609599.668 10 0 60287 82800.00000 0 12428661.086 -13501106.406 17745839.016 10 0 60287 83700.00000 0 14298682.803 -14343754.180 15538199.410 10 0 60287 84600.00000 0 15841477.513 -15194061.194 13029420.119 10 0 60287 85500.00000 0 17036445.030 -15994765.709 10268078.860 10 0 60288 0.00000 0 17875819.994 -16687474.451 7307660.515 10 0 60288 900.00000 0 18364772.980 -17215240.332 4205528.444 10 0 60288 1800.00000 0 18520981.057 -17525097.889 1021821.538 10 0 60288 2700.00000 0 18373687.450 -17570450.877 -2181707.481 10 0 60288 3600.00000 0 17962288.602 -17313210.037 -5342886.442 10 0 60288 4500.00000 0 17334508.495 -16725590.514 -8400329.200 10 0 60288 5400.00000 0 16544236.954 -15791491.914 -11294628.475 10 0 60288 6300.00000 0 15649122.987 -14507401.342 -13969512.630 10 0 60288 7200.00000 0 14708024.724 -12882779.693 -16372943.479 10 0 60288 8100.00000 0 13778423.673 -10939913.059 -18458133.424 10 0 60288 9000.00000 0 12913912.632 -8713233.566 -20184461.698 10 0 60288 9900.00000 0 12161863.617 -6248136.287 -21518271.481 10 0 60288 10800.00000 0 11561374.573 -3599340.063 -22433532.009 10 0 60288 11700.00000 0 11141581.970 -828859.257 -22912352.453 10 0 60288 12600.00000 0 10920410.955 1996330.055 -22945337.157 10 0 60288 13500.00000 0 10903816.242 4806833.031 -22531774.962 10 0 60288 14400.00000 0 11085546.219 7533482.833 -21679658.511 10 0 60288 15300.00000 0 11447440.592 10109981.284 -20405532.725 10 0 60288 16200.00000 0 11960249.218 12475423.597 -18734175.003 10 0 60288 17100.00000 0 12584937.642 14576602.068 -16698113.014 10 0 60288 18000.00000 0 13274424.020 16369992.665 -14336989.284 10 0 60288 18900.00000 0 13975673.653 17823341.824 -11696784.936 10 0 60288 19800.00000 0 14632061.968 18916787.481 -8828917.873 10 0 60288 20700.00000 0 15185905.184 19643468.111 -5789233.531 10 0 60288 21600.00000 0 15581050.688 20009595.269 -2636908.512 10 0 60288 22500.00000 0 15765416.523 20033987.961 566710.608 10 0 60288 23400.00000 0 15693371.650 19747090.015 3759309.647 10 0 60288 24300.00000 0 15327855.528 19189513.625 6878825.929 10 0 60288 25200.00000 0 14642146.875 18410172.230 9864659.547 10 0 60288 26100.00000 0 13621206.562 17464083.061 12658852.491 10 0 60288 27000.00000 0 12262537.903 16409933.390 15207212.429 10 0 60288 27900.00000 0 10576528.106 15307513.989 17460359.362 10 0 60288 28800.00000 0 8586256.616 14215128.376 19374675.256 10 0 60288 29700.00000 0 6326778.428 13187086.839 20913139.081 10 0 60288 30600.00000 0 3843912.172 12271390.084 22046032.181 10 0 60288 31500.00000 0 1192583.245 11507698.878 22751501.538 10 0 60288 32400.00000 0 -1565209.642 10925673.714 23015971.367 10 0 60288 33300.00000 0 -4362720.938 10543752.820 22834396.228 10 0 60288 34200.00000 0 -7130982.312 10368418.474 22210351.713 10 0 60288 35100.00000 0 -9801421.070 10393981.301 21155961.551 10 0 60288 36000.00000 0 -12308465.942 10602890.826 19691662.761 10 0 60288 36900.00000 0 -14592033.774 10966558.843 17845813.199 10 0 60288 37800.00000 0 -16599795.500 11446661.036 15654148.581 10 0 60288 38700.00000 0 -18289128.648 11996862.470 13159098.627 10 0 60288 39600.00000 0 -19628676.305 12564894.978 10408974.627 10 0 60288 40500.00000 0 -20599448.431 13094899.628 7457043.090 10 0 60288 41400.00000 0 -21195420.142 13529936.259 4360502.426 10 0 60288 42300.00000 0 -21423602.182 13814554.704 1179381.715 10 0 60288 43200.00000 0 -21303580.712 13897319.395 -2024617.741 10 0 60288 44100.00000 0 -20866545.599 13733180.603 -5189315.950 10 0 60288 45000.00000 0 -20153847.821 13285591.615 -8253259.779 10 0 60288 45900.00000 0 -19215146.422 12528281.486 -11156917.015 10 0 60288 46800.00000 0 -18106222.824 11446607.214 -13843835.477 10 0 60288 47700.00000 0 -16886554.402 10038426.676 -16261744.282 10 0 60288 48600.00000 0 -15616749.525 8314453.706 -18363575.422 10 0 60288 49500.00000 0 -14355952.125 6298078.346 -20108385.418 10 0 60288 50400.00000 0 -13159325.311 4024657.843 -21462158.668 10 0 60288 51300.00000 0 -12075720.179 1540306.175 -22398476.512 10 0 60288 52200.00000 0 -11145628.232 -1099769.003 -22899038.642 10 0 60288 53100.00000 0 -10399503.890 -3833313.929 -22954026.316 10 0 60288 54000.00000 0 -9856527.930 -6593376.557 -22562299.932 10 0 60288 54900.00000 0 -9523864.111 -9310857.576 -21731426.708 10 0 60288 55800.00000 0 -9396440.386 -11917158.781 -20477537.497 10 0 60288 56700.00000 0 -9457263.859 -14346818.690 -18825015.128 10 0 60288 57600.00000 0 -9678255.989 -16540025.608 -16806019.974 10 0 60288 58500.00000 0 -10021572.398 -18444903.196 -14459861.811 10 0 60288 59400.00000 0 -10441350.904 -20019473.137 -11832230.141 10 0 60288 60300.00000 0 -10885813.089 -21233212.927 -8974298.176 10 0 60288 61200.00000 0 -11299629.511 -22068143.908 -5941718.416 10 0 60288 62100.00000 0 -11626447.354 -22519404.578 -2793530.085 10 0 60288 63000.00000 0 -11811472.365 -22595286.110 408999.420 10 0 60288 63900.00000 0 -11803994.655 -22316729.841 3603575.421 10 0 60288 64800.00000 0 -11559750.472 -21716309.444 6728094.829 10 0 60288 65700.00000 0 -11043019.270 -20836742.215 9721858.349 10 0 60288 66600.00000 0 -10228366.879 -19728993.840 12526751.738 10 0 60288 67500.00000 0 -9101960.889 -18450057.828 15088372.810 10 0 60288 68400.00000 0 -7662402.663 -17060504.182 17357082.328 10 0 60288 69300.00000 0 -5921040.961 -15621901.075 19288958.837 10 0 60288 70200.00000 0 -3901753.964 -14194218.022 20846639.684 10 0 60288 71100.00000 0 -1640208.701 -12833319.181 22000033.064 10 0 60288 72000.00000 0 817371.495 -11588651.094 22726888.531 10 0 60288 72900.00000 0 3415880.667 -10501220.532 23013216.234 10 0 60288 73800.00000 0 6093376.265 -9601945.648 22853547.963 10 0 60288 74700.00000 0 8783413.589 -8910447.960 22251035.885 10 0 60288 75600.00000 0 11417573.090 -8434334.227 21217387.702 10 0 60288 76500.00000 0 13928077.162 -8168997.069 19772639.695 10 0 60288 77400.00000 0 16250389.379 -8097941.739 17944771.882 10 0 60288 78300.00000 0 18325689.773 -8193624.805 15769172.229 10 0 60288 79200.00000 0 20103124.672 -8418769.339 13287959.438 10 0 60288 80100.00000 0 21541738.578 -8728101.486 10549176.487 10 0 60288 81000.00000 0 22612008.422 -9070435.685 7605869.473 10 0 60288 81900.00000 0 23296916.696 -9391021.114 4515068.620 10 0 60288 82800.00000 0 23592518.774 -9634050.829 1336690.382 10 0 60288 83700.00000 0 23507980.638 -9745227.867 -1867618.682 10 0 60288 84600.00000 0 23065085.169 -9674279.913 -5035674.254 10 0 60288 85500.00000 0 22297227.346 -9377315.849 -8105959.726 99